Flag for Germany Weather past 2 weeks in Jülich, North Rhine-Westphalia, Germany

Now
53 °F

Cool.


Feels Like: 53 °F
Forecast: 53 / 65 °F
Wind: No wind

Location: Noervenich

Current Time: Apr 25, 2015 at 9:38:39 AM

Latest Report: Apr 25, 2015 at 8:00 AM


Visibility: 2 mi

Pressure: 29.80 "Hg

Humidity: 91%

Dew point: 51 °F

Location of JülichLocation

Historic Weather in Jülich — Graph

°F

Jülich temperature yesterday

Maximum temperature yesterday: 70 °F (at 4:00 PM)
Minimum temperature yesterday: 38 °F (at 7:00 AM)
Average temperature yesterday: 55 °F

Past Weeks' High & Low Weather Summary

 TemperatureHumidityPressure
High75 °F (Apr 15, 4:00 PM)95% (Apr 23, 6:00 AM)30.50 "Hg (Apr 23, 6:00 AM)
Low33 °F (Apr 19, 7:00 AM)25% (Apr 10, 6:00 PM)29.79 "Hg (Apr 25, 7:00 AM)
Average53 °F60%30.19 "Hg
* Reported Apr 10 9:00 AM — Apr 25 8:00 AM, Jülich, Weather by CustomWeather, © 2015

Note: Actual official high and low records may vary slightly from our data, if they occured in-between our weather recording intervals... More about our weather records

Advertising

Jülich weather history for previous 24 hours

 ConditionsComfort  
Time TempWeatherWind HumidityBarometerVisibility
8:00 AM
Sat, Apr 25
53 °FCool.No wind91%29.80 "Hg2 mi
7:00 AM54 °FCool.1 mph85%29.79 "Hg2 mi
6:00 AM54 °FCool.2 mph76%29.81 "Hg3 mi
4:00 AM53 °FCool.No wind76%29.80 "Hg9 mi
3:00 AM55 °FCool.1 mph71%29.80 "Hg7 mi
1:00 AM58 °FCool.No wind62%29.82 "Hg12 mi
12:00 AM60 °FRefreshingly cool.3 mph54%29.83 "Hg15 mi
10:00 PM
Fri, Apr 24
60 °FRefreshingly cool.2 mph56%29.83 "Hg17 mi
9:00 PM64 °FMild.1 mph49%29.83 "Hg22 mi
8:00 PM68 °FOvercast.2 mph41%29.82 "Hg12 mi
7:00 PM69 °FPartly sunny.2 mph40%29.83 "Hg12 mi
6:00 PM70 °FScattered clouds.3 mph34%29.84 "Hg12 mi
4:00 PM70 °FScattered clouds.6 mph27%29.86 "Hg12 mi
3:00 PM70 °FScattered clouds.2 mph29%29.88 "Hg6 mi
1:00 PM65 °FSunny.1 mph43%29.92 "Hg6 mi
12:00 PM63 °FSunny.2 mph48%29.94 "Hg6 mi
10:00 AM58 °FPassing clouds.N/A55%29.95 "Hg6 mi
9:00 AM52 °FPassing clouds.1 mph64%29.96 "Hg6 mi
Weather by CustomWeather, © 2015

See weather overviewHow to use our weather pages